This demonstration page uses our WeatherBlox Daily Observations layout. Learn more.

Left ArrowRight Arrow

39.01783, -85.05884

Hourly Observations for December 24, 2020

Temp ( °F °C ) Dew Point ( °F °C ) Humidity (%) Winds ( mph kmh ) Pressure ( in mb ) Visibility ( mi km ) Precip ( " mm )
12:52 am 00:52 Cloudy with Light Rain 48 8.9 42 5.6 80 80 S 29 46 29.67 1005 8 13 0.02 0.51
1:52 am 01:52 Cloudy with Heavy Rain 47 8.3 43 6.1 86 86 WSW 15 24 29.72 1006 3 5 0.04 1.02
1:59 am 01:59 Cloudy with Light Rain 47 8.3 44 6.7 90 90 WSW 15 24 29.75 1007 4 6 0.03 0.76
2:23 am 02:23 Cloudy with Light Rain 47 8.3 44 6.7 90 90 SSW 12 19 29.73 1007 7 11 0.05 1.27
2:52 am 02:52 Cloudy with Light Rain 47 8.3 44 6.7 90 90 SSW 14 22 29.69 1006 8 13 0.07 1.78
3:52 am 03:52 Cloudy with Light Rain 47 8.3 44 6.7 90 90 SSW 10 17 29.68 1005 10 16 0.02 0.51
4:01 am 04:01 Cloudy with Light Rain 48 8.9 44 6.7 86 86 SSW 14 22 29.69 1006 10 16 0.00 0.00
4:12 am 04:12 Cloudy with Light Rain 48 8.9 44 6.7 86 86 SSW 14 22 29.69 1006 10 16 0.00 0.00
4:37 am 04:37 Cloudy with Mist and Fog 47 8.3 45 7.2 93 93 SSW 10 17 29.69 1005 6 10 0.01 0.25
4:52 am 04:52 Cloudy with Light Rain 47 8.3 44 6.7 90 90 WSW 17 28 29.68 1005 3 5 0.01 0.25
4:58 am 04:58 Cloudy with Light Rain 43 6.1 40 4.4 89 89 W 22 35 29.72 1007 2 3 0.00 0.00
5:03 am 05:03 Cloudy with Light Rain 42 5.6 39 3.9 89 89 W 21 33 29.73 1007 2 3 0.01 0.25
5:07 am 05:07 Cloudy with Light Rain 42 5.6 39 3.9 89 89 W 18 30 29.73 1007 3 4 0.01 0.25
5:16 am 05:16 Cloudy with Light Rain 42 5.6 39 3.9 89 89 W 14 22 29.74 1007 3 5 0.01 0.25
5:35 am 05:35 Cloudy with Light Rain 41 5 39 3.9 93 93 W 14 22 29.74 1007 3 5 0.01 0.25
5:52 am 05:52 Cloudy with Light Rain 40 4.4 38 3.3 93 93 W 13 20 29.72 1006 3 5 0.01 0.25
6:19 am 06:19 Cloudy 39 3.9 35 1.7 86 86 W 15 24 29.76 1008 9 14 0.01 0.25
6:52 am 06:52 Cloudy 36 2.2 33 0.6 89 89 W 17 28 29.74 1007 9 14 0.01 0.25
7:25 am 07:25 Cloudy 34 1.1 30 -1.1 85 85 W 10 17 29.79 1009 10 16 0.00 0.00
7:52 am 07:52 Cloudy 33 0.6 26 -3.3 75 75 WSW 12 19 29.76 1008 10 16 0.00 0.00
8:33 am 08:33 Cloudy 32 undefined 25 -3.9 75 75 WSW 9 15 29.83 1010 10 16 N/A
8:52 am 08:52 Cloudy 31 -0.6 25 -3.9 79 79 WNW 16 26 29.78 1008 9 14 N/A
9:52 am 09:52 Cloudy 30 -1.1 21 -6.1 69 69 W 13 20 29.80 1009 10 16 N/A
10:52 am 10:52 Cloudy 29 -1.7 20 -6.7 69 69 WNW 12 19 29.79 1009 10 16 N/A
11:52 am 11:52 Cloudy 28 -2.2 20 -6.7 72 72 WNW 12 19 29.78 1009 10 16 N/A
12:52 pm 12:52 Cloudy 26 -3.3 18 -7.8 71 71 NW 18 30 29.75 1008 10 16 N/A
1:52 pm 13:52 Cloudy 25 -3.9 17 -8.3 72 72 NW 16 26 29.76 1008 10 16 N/A
2:52 pm 14:52 Cloudy with Light Snow 25 -3.9 17 -8.3 72 72 WNW 16 26 29.76 1008 9 14 0.00 0.00
3:52 pm 15:52 Cloudy 25 -3.9 17 -8.3 72 72 NW 14 22 29.76 1008 10 16 0.00 0.00
4:52 pm 16:52 Cloudy 24 -4.4 15 -9.4 68 68 WNW 15 24 29.77 1008 10 16 N/A
5:52 pm 17:52 Cloudy 23 -5 14 -10 68 68 NW 14 22 29.80 1009 10 16 N/A
6:52 pm 18:52 Cloudy with Light Snow 22 -5.6 14 -10 71 71 WNW 13 20 29.82 1010 9 14 0.00 0.00
7:52 pm 19:52 Cloudy with Light Snow 21 -6.1 12 -11.1 68 68 WNW 10 17 29.84 1011 8 13 0.00 0.00
8:52 pm 20:52 Cloudy with Light Snow 20 -6.7 11 -11.7 68 68 WNW 18 30 29.88 1012 7 11 0.00 0.00
9:32 pm 21:32 Cloudy with Light Snow 19 -7.2 8 -13.3 62 62 WNW 15 24 29.93 1014 9 14 0.00 0.00
9:52 pm 21:52 Cloudy with Light Snow 19 -7.2 10 -12.2 68 68 W 14 22 29.88 1012 8 13 0.00 0.00
10:04 pm 22:04 Cloudy with Light Snow 19 -7.2 11 -11.7 71 71 WNW 12 19 29.93 1014 3 5 0.00 0.00
10:12 pm 22:12 Cloudy with Light Snow 18 -7.8 12 -11.1 77 77 WNW 10 17 29.95 1014 2 3 0.00 0.00
10:18 pm 22:18 Cloudy with Light Snow 18 -7.8 12 -11.1 77 77 WNW 13 20 29.95 1014 6 10 0.00 0.00
10:52 pm 22:52 Cloudy with Light Snow 18 -7.8 9 -12.8 68 68 WNW 13 20 29.90 1013 5 8 0.00 0.00
11:22 pm 23:22 Cloudy with Light Snow 18 -7.8 11 -11.7 74 74 WNW 10 17 29.95 1014 1 2 0.00 0.00
11:36 pm 23:36 Cloudy with Light Snow 17 -8.3 11 -11.7 77 77 WNW 13 20 29.95 1014 3 5 0.00 0.00
11:52 pm 23:52 Cloudy with Light Snow 18 -7.8 9 -12.8 68 68 W 10 17 29.89 1012 7 11 0.00 0.00

Powered by AerisWeather